Printer-friendly version
Follow the MPC on Twitter Follow the MPC on Facebook The MPC blog
Minor Planet Center

MPEC 2010-L57 : 2010 LM34

The following Minor Planet Electronic Circular may be linked-to from your own Web pages, but must not otherwise be redistributed electronically.

A form allowing access to any MPEC is at the bottom of this page.


Read MPEC 2010-L56 Read MPEC 2010-L58


M.P.E.C. 2010-L57                                Issued 2010 June 10, 22:47 UT

     The Minor Planet Electronic Circulars contain information on unusual
         minor planets and routine data on comets.  They are published
   on behalf of Commission 20 of the International Astronomical Union by the
          Minor Planet Center, Smithsonian Astrophysical Observatory,
                          Cambridge, MA 02138, U.S.A.

             Prepared using the Tamkin Foundation Computer Network

                              MPC@CFA.HARVARD.EDU
       URL http://www.minorplanetcenter.org/iau/mpc.html  ISSN 1523-6714

                                   2010 LM34

Observations:
     K10L34M* C2010 06 10.28940 16 25 04.33 -00 33 06.1          18.5 V EL057703
     K10L34M  C2010 06 10.29513 16 25 07.42 -00 30 56.1          18.5 V EL057703
     K10L34M  C2010 06 10.30088 16 25 10.48 -00 28 44.4          18.9 V EL057703
     K10L34M  C2010 06 10.30669 16 25 13.69 -00 26 33.6          18.3 V EL057703
     K10L34M  C2010 06 10.31244 16 25 16.75 -00 24 22.6          18.8 V EL057703
     K10L34M  C2010 06 10.33910816 25 29.37 -00 14 28.3          18.6 V EL057H21
     K10L34M  C2010 06 10.34464016 25 32.51 -00 12 23.8                 EL057H21
     K10L34M  C2010 06 10.34871 16 25 36.30 -00 10 40.3          18.9 V EL057703
     K10L34M  C2010 06 10.34929 16 25 36.55 -00 10 27.6          18.3 V EL057703
     K10L34M  C2010 06 10.34987 16 25 36.94 -00 10 14.0          18.4 V EL057703
     K10L34M KC2010 06 10.38285 16 25 54.41 +00 02 11.6          19.2 C EL057H15
     K10L34M KC2010 06 10.38429 16 25 55.23 +00 02 44.0          18.8 C EL057H15
     K10L34M KC2010 06 10.38570 16 25 55.89 +00 03 15.1          18.4 C EL057H15
     K10L34M  C2010 06 10.38625 16 25 56.74 +00 03 29.5          18.7 R EL057854
     K10L34M  C2010 06 10.38861 16 25 57.96 +00 04 23.2          18.7 R EL057854
     K10L34M  C2010 06 10.39099 16 25 59.20 +00 05 17.5          18.5 R EL057854
     K10L34M KC2010 06 10.39525 16 26 01.18 +00 06 52.2          18.5 C EL057H10
     K10L34M  C2010 06 10.39641 16 26 02.16 +00 07 18.3          19.0 V EL057703
     K10L34M  C2010 06 10.39700 16 26 02.62 +00 07 32.3          18.7 V EL057703
     K10L34M KC2010 06 10.40848 16 26 08.45 +00 11 50.3                 EL057H10
     K10L34M KC2010 06 10.91431 16 31 03.35 +03 19 43.9          19.7 V EL057198
     K10L34M KC2010 06 10.91449 16 31 03.43 +03 19 47.2          19.3 V EL057198
     K10L34M KC2010 06 10.91674 16 31 04.60 +03 20 37.1          19.7 V EL057198

Observer details:
198 Wildberg.  Observer R. Apitzsch.  0.35-m f/4.2 reflector + CCD.
703 Catalina Sky Survey.  Observer A. Boattini.  Measurers J. D. Ahern,
    E. C. Beshore, A. Boattini, G. J. Garradd, A. R. Gibbs, A. D. Grauer,
    R. E. Hill, R. A. Kowalski, S. M. Larson, R. H. McNaught.  0.68-m Schmidt
    + CCD.
854 Sabino Canyon Observatory, Tucson.  Observer J. E. McGaha.  0.36-m f/10.0
    Schmidt-Cassegrain + CCD.
H10 Tzec Maun Observatory, Mayhill.  Observers L. Buzzi, S. Foglia.  0.41-m
    f/9.1 Ritchey-Chretien + CCD.
H15 ISON-NM Observatory, Mayhill.  Observer L. Elenin.  0.45-m f/2.8
    astrograph + CCD.
H21 Astronomical Research Observatory, Westfield.  Observer R. Holmes.
    Measurer S. Foglia.

Orbital elements:
2010 LM34                                                Earth MOID = 0.0729 AU
Epoch 2010 July 23.0 TT = JDT 2455400.5                 MPC
M   7.12104              (2000.0)            P               Q
n   0.20895274     Peri.   13.05103     -0.05208685     +0.91403271
a   2.8125743      Node   255.09915     -0.94956097     -0.17006544
e   0.6165478      Incl.   24.60001     -0.30922632     +0.36826885
P   4.72           H   23.2           G   0.15           U   8
Residuals in seconds of arc
100610 703  0.2-  0.5-    100610 703  0.8-  0.3-    100610 H10  0.3-  0.3+
100610 703  0.0   0.6-    100610 703  0.3+  0.2+    100610 703  0.9-  0.7-
100610 703  0.5-  0.6+    100610 H15  0.2+  0.1+    100610 703  1.2+  0.0
100610 703  0.8+  0.5-    100610 H15  0.6+  0.1-    100610 H10  0.5-  0.6-
100610 703  0.2+  0.1+    100610 H15  1.0-  0.9-    100610 198  0.3+  0.3+
100610 H21  0.3-  1.1+    100610 854  1.0+  0.1+    100610 198  0.1+  0.3-
100610 H21  1.0+  0.2+    100610 854  0.0   0.4+    100610 198  0.4-  0.0
100610 703  0.1+  0.2+    100610 854  0.9-  0.9+

Ephemeris:
2010 LM34                a,e,i = 2.81, 0.62, 25                  q = 1.0785
Date    TT    R. A. (2000) Decl.     Delta      r     Elong.  Phase     V
2010 06 03    15 08.52   -41 23.7    0.0936   1.098   152.5    25.3    19.4
2010 06 05    15 30.31   -32 28.3    0.0838   1.094   159.6    18.9    19.0
2010 06 07    15 51.75   -21 22.9    0.0774   1.090   164.3    14.6    18.6
2010 06 09    16 12.38   -08 47.8    0.0750   1.086   160.7    18.0    18.7
2010 06 11    16 31.84   +03 52.2    0.0770   1.083   151.0    27.0    19.0
2010 06 13    16 49.90   +15 11.0    0.0832   1.081   140.7    36.5    19.5
2010 06 15    17 06.47   +24 26.0    0.0925   1.080   131.9    44.5    19.9
2010 06 17    17 21.52   +31 38.0    0.104    1.079   124.8    50.6    20.3
2010 06 19    17 35.11   +37 08.2    0.117    1.078   119.4    55.2    20.7
2010 06 21    17 47.35   +41 20.3    0.132    1.079   115.2    58.5    21.1
2010 06 23    17 58.34   +44 34.2    0.147    1.080   112.0    60.8    21.4
2010 06 25    18 08.20   +47 04.8    0.162    1.081   109.5    62.4    21.6
2010 06 27    18 17.05   +49 03.0    0.178    1.084   107.6    63.4    21.9
2010 06 29    18 25.01   +50 36.5    0.194    1.086   106.1    64.0    22.1
2010 07 01    18 32.18   +51 51.0    0.210    1.090   105.0    64.3    22.3
2010 07 03    18 38.64   +52 50.4    0.226    1.094   104.1    64.3    22.4

Timothy B. Spahr             (C) Copyright 2010 MPC           M.P.E.C. 2010-L57

Read MPEC 2010-L56 Read MPEC 2010-L58


MPEC number:

Enter an MPEC number in one of the following forms:

  • 1997-B01 (the full form)
  • J97B01 (the packed version of the full form)
  • B01 (the abbreviated form)

Valid HTML 4.01!